Time,TemperatureF,DewpointF,PressureIn,WindDirection,WindDirectionDegrees,WindSpeedMPH,WindSpeedGustMPH,Humidity,HourlyPrecipIn,Conditions,Clouds,dailyrainin,SolarRadiationWatts/m^2,SoftwareType,DateUTC
2013-04-13 00:00:00,68.2,66.7,29.75,SW,229,1.2,4.6,95,0.00,CLR,OVC,1.62,0.0,WeatherDisplay:10.37,2013-04-13 04:00:00,
2013-04-13 00:05:00,68.2,66.7,29.75,SW,230,3.5,4.0,95,0.00,RA,OVC,0.00,0.0,WeatherDisplay:10.37,2013-04-13 04:05:00,
2013-04-13 00:10:00,68.1,66.6,29.75,SSW,204,3.2,5.8,95,0.00,RA,OVC,0.00,0.0,WeatherDisplay:10.37,2013-04-13 04:10:00,
2013-04-13 00:15:00,68.1,66.6,29.75,SW,233,2.7,5.8,95,0.00,CLR,OVC,0.00,0.0,WeatherDisplay:10.37,2013-04-13 04:15:00,
2013-04-13 00:20:00,68.1,66.6,29.76,SW,219,3.5,5.8,95,0.00,CLR,OVC,0.00,0.0,WeatherDisplay:10.37,2013-04-13 04:20:00,
2013-04-13 00:25:00,68.1,66.6,29.76,SW,226,3.4,4.6,95,0.00,CLR,OVC,0.00,0.0,WeatherDisplay:10.37,2013-04-13 04:25:00,
2013-04-13 00:30:00,68.1,66.6,29.76,South,188,4.0,6.9,95,0.00,CLR,OVC,0.00,0.0,WeatherDisplay:10.37,2013-04-13 04:30:00,
2013-04-13 00:35:00,68.1,66.6,29.77,SW,234,2.5,6.9,95,0.00,CLR,OVC,0.00,0.0,WeatherDisplay:10.37,2013-04-13 04:35:00,
2013-04-13 00:40:00,68.1,66.6,29.77,SW,236,3.2,3.5,95,0.00,CLR,OVC,0.00,0.0,WeatherDisplay:10.37,2013-04-13 04:40:00,
2013-04-13 00:45:00,68.1,66.6,29.77,WSW,238,3.0,4.0,95,0.00,CLR,OVC,0.00,0.0,WeatherDisplay:10.37,2013-04-13 04:45:00,
2013-04-13 00:50:00,68.1,66.3,29.77,WSW,237,1.1,3.5,94,0.00,CLR,OVC,0.00,0.0,WeatherDisplay:10.37,2013-04-13 04:50:00,
2013-04-13 00:55:00,68.1,66.3,29.78,SW,222,4.7,8.1,94,0.00,CLR,OVC,0.00,0.0,WeatherDisplay:10.37,2013-04-13 04:55:00,
2013-04-13 01:00:00,68.0,66.2,29.78,SW,236,2.4,6.9,94,0.00,CLR,OVC,0.00,0.0,WeatherDisplay:10.37,2013-04-13 05:00:00,
2013-04-13 01:05:00,68.0,66.2,29.78,SW,224,2.0,6.0,94,0.00,CLR,OVC,0.00,0.0,WeatherDisplay:10.37,2013-04-13 05:05:00,
2013-04-13 01:10:00,68.0,66.2,29.78,SSW,208,2.1,3.5,94,0.00,CLR,OVC,0.00,0.0,WeatherDisplay:10.37,2013-04-13 05:10:00,
2013-04-13 01:15:00,68.0,66.2,29.78,WSW,238,1.9,6.9,94,0.00,CLR,OVC,0.00,0.0,WeatherDisplay:10.37,2013-04-13 05:15:00,
2013-04-13 01:20:00,67.9,66.1,29.78,WSW,242,0.9,3.5,94,0.00,CLR,OVC,0.00,0.0,WeatherDisplay:10.37,2013-04-13 05:20:00,
2013-04-13 01:25:00,67.9,66.1,29.78,West,265,1.6,3.5,94,0.00,CLR,OVC,0.00,0.0,WeatherDisplay:10.37,2013-04-13 05:25:00,
2013-04-13 01:30:00,67.7,65.9,29.78,WSW,249,0.1,3.5,94,0.00,CLR,OVC,0.00,0.0,WeatherDisplay:10.37,2013-04-13 05:30:00,
2013-04-13 01:35:00,67.6,65.8,29.78,SW,230,2.6,4.6,94,0.00,CLR,OVC,0.00,0.0,WeatherDisplay:10.37,2013-04-13 05:35:00,
2013-04-13 01:40:00,67.5,65.7,29.78,WSW,251,3.6,9.2,94,0.00,CLR,OVC,0.00,0.0,WeatherDisplay:10.37,2013-04-13 05:40:00,
2013-04-13 01:45:00,67.5,65.7,29.78,SW,229,3.7,6.9,94,0.00,CLR,OVC,0.00,0.0,WeatherDisplay:10.37,2013-04-13 05:45:00,
2013-04-13 01:50:00,67.4,65.6,29.78,West,265,3.6,4.6,94,0.00,CLR,OVC,0.00,0.0,WeatherDisplay:10.37,2013-04-13 05:50:00,
2013-04-13 01:55:00,67.4,65.6,29.78,WSW,254,2.5,5.8,94,0.00,CLR,OVC,0.00,0.0,WeatherDisplay:10.37,2013-04-13 05:55:00,
2013-04-13 02:00:00,67.4,65.6,29.78,West,271,3.2,5.8,94,0.00,CLR,OVC,0.00,0.0,WeatherDisplay:10.37,2013-04-13 06:00:00,
2013-04-13 02:05:00,67.2,65.4,29.78,SW,221,3.7,8.1,94,0.00,CLR,OVC,0.00,0.0,WeatherDisplay:10.37,2013-04-13 06:05:00,
2013-04-13 02:10:00,67.1,65.3,29.78,WNW,300,1.5,3.5,94,0.00,CLR,OVC,0.00,0.0,WeatherDisplay:10.37,2013-04-13 06:10:00,
2013-04-13 02:15:00,67.0,65.2,29.78,SW,234,1.5,4.6,94,0.00,CLR,OVC,0.00,0.0,WeatherDisplay:10.37,2013-04-13 06:15:00,
2013-04-13 02:20:00,66.9,65.1,29.78,SW,229,0.3,4.0,94,0.00,CLR,OVC,0.00,0.0,WeatherDisplay:10.37,2013-04-13 06:20:00,
2013-04-13 02:25:00,66.8,65.0,29.78,WSW,249,1.6,5.0,94,0.00,CLR,OVC,0.00,0.0,WeatherDisplay:10.37,2013-04-13 06:25:00,
2013-04-13 02:30:00,66.6,64.5,29.78,SW,215,1.8,3.5,93,0.00,CLR,OVC,0.00,0.0,WeatherDisplay:10.37,2013-04-13 06:30:00,
2013-04-13 02:37:00,66.3,63.9,29.78,SW,231,3.3,4.6,92,0.00,CLR,OVC,0.00,0.0,WeatherDisplay:10.37,2013-04-13 06:37:00,
2013-04-13 02:42:00,66.1,63.4,29.78,SW,234,1.2,3.5,91,0.00,CLR,OVC,0.00,0.0,WeatherDisplay:10.37,2013-04-13 06:42:00,
2013-04-13 02:48:00,65.8,62.8,29.79,SW,222,1.5,3.5,90,0.00,CLR,OVC,0.00,0.0,WeatherDisplay:10.37,2013-04-13 06:48:00,
2013-04-13 02:53:00,65.7,62.7,29.79,SW,235,1.2,2.3,90,0.00,CLR,OVC,0.00,0.0,WeatherDisplay:10.37,2013-04-13 06:53:00,
2013-04-13 03:00:00,65.5,62.8,29.79,SW,229,1.5,3.5,91,0.00,CLR,OVC,0.00,0.0,WeatherDisplay:10.37,2013-04-13 07:00:00,
2013-04-13 03:06:00,65.3,62.6,29.79,SW,229,0.0,0.0,91,0.00,CLR,OVC,0.00,0.0,WeatherDisplay:10.37,2013-04-13 07:06:00,
2013-04-13 03:11:00,65.1,62.4,29.79,SW,229,0.0,0.0,91,0.00,CLR,OVC,0.00,0.0,WeatherDisplay:10.37,2013-04-13 07:11:00,
2013-04-13 03:16:00,64.7,62.3,29.79,SW,229,0.0,1.1,92,0.00,CLR,OVC,0.00,0.0,WeatherDisplay:10.37,2013-04-13 07:16:00,
2013-04-13 03:21:00,64.5,62.4,29.79,West,273,0.0,0.0,93,0.00,CLR,OVC,0.00,0.0,WeatherDisplay:10.37,2013-04-13 07:21:00,
2013-04-13 03:27:00,64.2,62.1,29.79,West,277,0.6,2.3,93,0.00,CLR,OVC,0.00,0.0,WeatherDisplay:10.37,2013-04-13 07:27:00,
2013-04-13 03:32:00,64.1,62.0,29.79,West,259,1.4,3.5,93,0.00,CLR,OVC,0.00,0.0,WeatherDisplay:10.37,2013-04-13 07:32:00,
2013-04-13 03:38:00,63.9,61.8,29.79,WSW,246,0.2,1.1,93,0.00,CLR,OVC,0.00,0.0,WeatherDisplay:10.37,2013-04-13 07:38:00,
2013-04-13 03:43:00,63.7,61.6,29.79,WSW,246,0.0,1.1,93,0.00,CLR,OVC,0.00,0.0,WeatherDisplay:10.37,2013-04-13 07:43:00,
2013-04-13 03:48:00,63.5,61.4,29.80,West,263,0.0,1.0,93,0.00,CLR,OVC,0.00,0.0,WeatherDisplay:10.37,2013-04-13 07:48:00,
2013-04-13 03:53:00,63.2,60.8,29.80,WNW,300,0.1,2.3,92,0.00,CLR,OVC,0.00,0.0,WeatherDisplay:10.37,2013-04-13 07:53:00,
2013-04-13 03:58:00,63.1,60.4,29.80,SW,217,1.7,3.5,91,0.00,CLR,OVC,0.00,0.0,WeatherDisplay:10.37,2013-04-13 07:58:00,
2013-04-13 04:04:00,63.0,60.0,29.81,SW,221,0.5,2.3,90,0.00,CLR,OVC,0.00,0.0,WeatherDisplay:10.37,2013-04-13 08:04:00,
2013-04-13 04:09:00,62.9,59.9,29.81,SW,215,0.6,3.0,90,0.00,CLR,OVC,0.00,0.0,WeatherDisplay:10.37,2013-04-13 08:09:00,
2013-04-13 04:14:00,62.7,59.7,29.81,WSW,248,0.3,1.1,90,0.00,CLR,OVC,0.00,0.0,WeatherDisplay:10.37,2013-04-13 08:14:00,
2013-04-13 04:19:00,62.4,59.1,29.81,West,268,1.3,2.3,89,0.00,CLR,OVC,0.00,0.0,WeatherDisplay:10.37,2013-04-13 08:19:00,
2013-04-13 04:24:00,62.3,58.7,29.82,SW,234,1.8,3.5,88,0.00,CLR,OVC,0.00,0.0,WeatherDisplay:10.37,2013-04-13 08:24:00,
2013-04-13 04:29:00,62.1,58.5,29.82,SW,233,0.7,3.5,88,0.00,CLR,OVC,0.00,0.0,WeatherDisplay:10.37,2013-04-13 08:29:00,
2013-04-13 04:34:00,61.9,58.0,29.82,SW,227,0.7,1.1,87,0.00,CLR,OVC,0.00,0.0,WeatherDisplay:10.37,2013-04-13 08:34:00,
2013-04-13 04:40:00,61.6,57.4,29.83,SW,227,0.2,2.3,86,0.00,CLR,OVC,0.00,0.0,WeatherDisplay:10.37,2013-04-13 08:40:00,
2013-04-13 04:46:00,61.4,57.2,29.83,WSW,248,1.0,2.0,86,0.00,CLR,OVC,0.00,0.0,WeatherDisplay:10.37,2013-04-13 08:46:00,
2013-04-13 04:51:00,61.2,56.7,29.83,SW,227,2.8,4.0,85,0.00,CLR,OVC,0.00,0.0,WeatherDisplay:10.37,2013-04-13 08:51:00,
2013-04-13 04:56:00,61.1,56.6,29.83,WSW,243,0.2,2.3,85,0.00,CLR,OVC,0.00,0.0,WeatherDisplay:10.37,2013-04-13 08:56:00,
2013-04-13 05:01:00,60.8,56.3,29.83,West,281,0.4,2.3,85,0.00,CLR,OVC,0.00,0.0,WeatherDisplay:10.37,2013-04-13 09:01:00,
2013-04-13 05:07:00,60.4,56.2,29.84,West,275,1.1,2.3,86,0.00,CLR,OVC,0.00,0.0,WeatherDisplay:10.37,2013-04-13 09:07:00,
2013-04-13 05:13:00,60.1,55.9,29.84,West,277,0.0,1.1,86,0.00,CLR,OVC,0.00,0.0,WeatherDisplay:10.37,2013-04-13 09:13:00,
2013-04-13 05:18:00,59.7,55.5,29.84,WNW,284,1.1,3.5,86,0.00,CLR,OVC,0.00,0.0,WeatherDisplay:10.37,2013-04-13 09:18:00,
2013-04-13 05:23:00,59.4,55.5,29.84,NW,315,0.5,3.5,87,0.00,CLR,OVC,0.00,0.0,WeatherDisplay:10.37,2013-04-13 09:23:00,
2013-04-13 05:29:00,59.1,55.2,29.84,NW,314,0.6,2.3,87,0.00,CLR,OVC,0.00,0.0,WeatherDisplay:10.37,2013-04-13 09:29:00,
2013-04-13 05:34:00,58.7,54.8,29.84,WNW,292,0.2,3.5,87,0.00,CLR,OVC,0.00,0.0,WeatherDisplay:10.37,2013-04-13 09:34:00,
2013-04-13 05:39:00,58.5,54.3,29.84,NW,321,0.8,4.6,86,0.00,CLR,OVC,0.00,0.0,WeatherDisplay:10.37,2013-04-13 09:39:00,
2013-04-13 05:45:00,58.3,54.1,29.84,West,269,0.6,1.1,86,0.00,CLR,OVC,0.00,0.0,WeatherDisplay:10.37,2013-04-13 09:45:00,
2013-04-13 05:50:00,58.2,54.0,29.84,WNW,296,1.1,3.0,86,0.00,CLR,OVC,0.00,0.0,WeatherDisplay:10.37,2013-04-13 09:50:00,
2013-04-13 05:55:00,58.1,53.9,29.84,WNW,283,0.6,2.3,86,0.00,CLR,OVC,0.00,0.0,WeatherDisplay:10.37,2013-04-13 09:55:00,
2013-04-13 06:00:00,58.0,53.8,29.85,WNW,285,0.0,2.3,86,0.00,CLR,OVC,0.00,0.0,WeatherDisplay:10.37,2013-04-13 10:00:00,
2013-04-13 06:05:00,57.9,53.7,29.85,NW,311,0.0,0.0,86,0.00,CLR,OVC,0.00,0.0,WeatherDisplay:10.37,2013-04-13 10:05:00,
2013-04-13 06:12:00,57.8,53.3,29.85,WNW,302,1.1,2.3,85,0.00,CLR,OVC,0.00,0.0,WeatherDisplay:10.37,2013-04-13 10:12:00,
2013-04-13 06:17:00,57.6,53.4,29.85,NW,321,0.5,3.0,86,0.00,OVC,,0.00,0.0,WeatherDisplay:10.37,2013-04-13 10:17:00,
2013-04-13 06:23:00,57.5,53.3,29.85,NW,319,1.6,1.6,86,0.00,OVC,,0.00,0.0,WeatherDisplay:10.37,2013-04-13 10:23:00,
2013-04-13 06:28:00,57.3,53.1,29.85,NNW,345,0.7,2.0,86,0.00,OVC,,0.00,0.0,WeatherDisplay:10.37,2013-04-13 10:28:00,
2013-04-13 06:33:00,57.2,53.0,29.85,WNW,290,1.4,3.5,86,0.00,OVC,,0.00,0.0,WeatherDisplay:10.37,2013-04-13 10:33:00,
2013-04-13 06:38:00,57.1,53.0,29.85,NW,321,0.9,3.5,86,0.00,OVC,,0.00,0.0,WeatherDisplay:10.37,2013-04-13 10:38:00,
2013-04-13 06:43:00,57.0,52.9,29.85,NW,313,0.0,2.3,86,0.00,OVC,,0.00,0.0,WeatherDisplay:10.37,2013-04-13 10:43:00,
2013-04-13 06:49:00,56.9,52.8,29.86,NW,323,0.0,0.0,86,0.00,OVC,,0.00,0.0,WeatherDisplay:10.37,2013-04-13 10:49:00,
2013-04-13 06:54:00,56.9,52.4,29.86,WNW,296,1.0,4.0,85,0.00,OVC,,0.00,0.0,WeatherDisplay:10.37,2013-04-13 10:54:00,
2013-04-13 06:59:00,56.9,52.4,29.87,NW,313,2.1,4.6,85,0.00,OVC,,0.00,0.0,WeatherDisplay:10.37,2013-04-13 10:59:00,
2013-04-13 07:04:00,56.9,52.4,29.87,WNW,291,0.3,2.3,85,0.00,OVC,,0.00,0.0,WeatherDisplay:10.37,2013-04-13 11:04:00,
2013-04-13 07:10:00,56.9,51.8,29.87,WNW,286,1.6,4.6,83,0.00,OVC,,0.00,0.0,WeatherDisplay:10.37,2013-04-13 11:10:00,
2013-04-13 07:15:00,57.3,52.5,29.88,WNW,290,1.0,4.0,84,0.00,OVC,,0.00,0.0,WeatherDisplay:10.37,2013-04-13 11:15:00,
2013-04-13 07:21:00,57.8,52.3,29.88,West,268,1.4,2.3,82,0.00,OVC,,0.00,0.0,WeatherDisplay:10.37,2013-04-13 11:21:00,
2013-04-13 07:26:00,58.3,52.2,29.87,NW,309,2.9,5.8,80,0.00,OVC,,0.00,0.0,WeatherDisplay:10.37,2013-04-13 11:26:00,
2013-04-13 07:32:00,58.5,51.7,29.86,NW,314,2.6,6.9,78,0.00,OVC,,0.00,0.0,WeatherDisplay:10.37,2013-04-13 11:32:00,
2013-04-13 07:37:00,58.7,51.9,29.86,NW,304,0.8,3.5,78,0.00,OVC,,0.00,0.0,WeatherDisplay:10.37,2013-04-13 11:37:00,
2013-04-13 07:42:00,59.0,52.1,29.86,NNW,338,1.1,2.3,78,0.00,OVC,,0.00,0.0,WeatherDisplay:10.37,2013-04-13 11:42:00,
2013-04-13 07:47:00,59.4,52.2,29.88,WNW,298,2.1,3.5,77,0.00,OVC,,0.00,0.0,WeatherDisplay:10.37,2013-04-13 11:47:00,
2013-04-13 07:52:00,60.0,52.1,29.90,North,9,1.0,2.3,75,0.00,OVC,,0.00,0.0,WeatherDisplay:10.37,2013-04-13 11:52:00,
2013-04-13 07:57:00,60.7,52.7,29.91,NW,321,1.3,3.5,75,0.00,OVC,,0.00,0.0,WeatherDisplay:10.37,2013-04-13 11:57:00,
2013-04-13 08:03:00,61.4,51.9,29.91,West,263,0.7,3.5,71,0.00,OVC,,0.00,0.0,WeatherDisplay:10.37,2013-04-13 12:03:00,
2013-04-13 08:08:00,62.2,52.7,29.91,WNW,302,1.6,3.5,71,0.00,OVC,,0.00,0.0,WeatherDisplay:10.37,2013-04-13 12:08:00,
2013-04-13 08:14:00,62.9,52.6,29.91,West,279,0.6,2.3,69,0.00,OVC,,0.00,0.0,WeatherDisplay:10.37,2013-04-13 12:14:00,
2013-04-13 08:19:00,63.6,52.8,29.92,NW,326,3.0,6.9,68,0.00,OVC,,0.00,0.0,WeatherDisplay:10.37,2013-04-13 12:19:00,
2013-04-13 08:24:00,63.9,51.5,29.92,WNW,296,7.7,7.7,64,0.00,OVC,,0.00,0.0,WeatherDisplay:10.37,2013-04-13 12:24:00,
2013-04-13 08:29:00,64.1,51.2,29.92,NNW,331,1.2,8.1,63,0.00,OVC,,0.00,0.0,WeatherDisplay:10.37,2013-04-13 12:29:00,
2013-04-13 08:34:00,64.3,51.0,29.92,NW,308,2.6,6.9,62,0.00,OVC,,0.00,0.0,WeatherDisplay:10.37,2013-04-13 12:34:00,
2013-04-13 08:39:00,64.5,49.8,29.92,NNE,29,0.5,4.6,59,0.00,OVC,,0.00,0.0,WeatherDisplay:10.37,2013-04-13 12:39:00,
2013-04-13 08:44:00,64.7,50.5,29.92,NW,326,1.3,5.8,60,0.00,OVC,,0.00,0.0,WeatherDisplay:10.37,2013-04-13 12:44:00,
2013-04-13 08:49:00,65.0,49.9,29.92,WNW,284,1.2,7.0,58,0.00,OVC,,0.00,0.0,WeatherDisplay:10.37,2013-04-13 12:49:00,
2013-04-13 08:54:00,65.3,49.2,29.92,NE,36,6.0,9.2,56,0.00,OVC,,0.00,0.0,WeatherDisplay:10.37,2013-04-13 12:54:00,
2013-04-13 09:00:00,65.2,49.1,29.92,NNW,338,5.0,10.0,56,0.00,OVC,,0.00,0.0,WeatherDisplay:10.37,2013-04-13 13:00:00,
2013-04-13 09:05:00,65.3,48.7,29.92,North,355,2.8,15.0,55,0.00,OVC,,0.00,0.0,WeatherDisplay:10.37,2013-04-13 13:05:00,
2013-04-13 09:12:00,65.6,50.4,29.92,NNE,24,1.2,5.8,58,0.00,OVC,,0.00,0.0,WeatherDisplay:10.37,2013-04-13 13:12:00,
2013-04-13 09:17:00,66.3,49.6,29.92,East,80,1.2,2.3,55,0.00,OVC,,0.00,0.0,WeatherDisplay:10.37,2013-04-13 13:17:00,
2013-04-13 09:22:00,66.8,49.1,29.93,NNW,342,0.6,2.0,53,0.00,OVC,,0.00,0.0,WeatherDisplay:10.37,2013-04-13 13:22:00,
2013-04-13 09:28:00,67.1,48.4,29.93,NE,42,4.3,12.7,51,0.00,OVC,,0.00,0.0,WeatherDisplay:10.37,2013-04-13 13:28:00,
2013-04-13 09:33:00,67.1,48.4,29.93,NNE,17,4.5,11.5,51,0.00,OVC,,0.00,0.0,WeatherDisplay:10.37,2013-04-13 13:33:00,
2013-04-13 09:38:00,67.2,48.5,29.93,North,5,1.8,5.8,51,0.00,OVC,,0.00,0.0,WeatherDisplay:10.37,2013-04-13 13:38:00,
2013-04-13 09:44:00,67.5,48.7,29.93,NNE,15,3.3,7.0,51,0.00,OVC,,0.00,0.0,WeatherDisplay:10.37,2013-04-13 13:44:00,
2013-04-13 09:49:00,67.6,48.3,29.94,NNW,335,6.1,11.5,50,0.00,OVC,,0.00,0.0,WeatherDisplay:10.37,2013-04-13 13:49:00,
2013-04-13 09:54:00,67.6,48.3,29.94,NE,49,2.0,11.5,50,0.00,OVC,,0.00,0.0,WeatherDisplay:10.37,2013-04-13 13:54:00,
2013-04-13 09:59:00,68.1,50.3,29.94,WNW,296,2.4,10.0,53,0.00,OVC,,0.00,0.0,WeatherDisplay:10.37,2013-04-13 13:59:00,
2013-04-13 10:04:00,68.5,49.1,29.94,SSW,201,4.7,13.8,50,0.00,OVC,,0.00,0.0,WeatherDisplay:10.37,2013-04-13 14:04:00,
2013-04-13 10:10:00,68.1,48.8,29.94,NE,44,2.6,11.5,50,0.00,OVC,,0.00,0.0,WeatherDisplay:10.37,2013-04-13 14:10:00,
2013-04-13 10:15:00,68.0,49.2,29.94,North,350,4.0,9.2,51,0.00,OVC,,0.00,0.0,WeatherDisplay:10.37,2013-04-13 14:15:00,
2013-04-13 10:20:00,68.0,49.7,29.94,NW,317,0.0,10.4,52,0.00,OVC,,0.00,0.0,WeatherDisplay:10.37,2013-04-13 14:20:00,
2013-04-13 10:25:00,68.0,49.7,29.95,NNE,24,2.7,3.5,52,0.00,OVC,,0.00,0.0,WeatherDisplay:10.37,2013-04-13 14:25:00,
2013-04-13 10:30:00,67.6,48.8,29.95,NNW,333,2.4,6.9,51,0.00,OVC,,0.00,0.0,WeatherDisplay:10.37,2013-04-13 14:30:00,
2013-04-13 10:35:00,68.1,50.8,29.95,NE,39,0.1,2.3,54,0.01,RA,OVC,0.01,0.0,WeatherDisplay:10.37,2013-04-13 14:35:00,
2013-04-13 10:40:00,68.6,49.2,29.95,NNE,19,7.7,11.5,50,0.01,RA,OVC,0.01,0.0,WeatherDisplay:10.37,2013-04-13 14:40:00,
2013-04-13 10:45:00,68.3,50.0,29.95,NE,49,3.4,9.0,52,0.01,OVC,,0.01,0.0,WeatherDisplay:10.37,2013-04-13 14:45:00,
2013-04-13 10:51:00,68.6,50.3,29.95,ENE,71,5.8,11.0,52,0.01,OVC,,0.01,0.0,WeatherDisplay:10.37,2013-04-13 14:51:00,
2013-04-13 10:57:00,68.8,48.9,29.95,NNW,335,1.0,3.5,49,0.01,OVC,,0.01,0.0,WeatherDisplay:10.37,2013-04-13 14:57:00,
2013-04-13 11:02:00,68.7,49.8,29.96,NE,54,4.2,7.0,51,0.01,OVC,,0.01,0.0,WeatherDisplay:10.37,2013-04-13 15:02:00,
2013-04-13 11:07:00,68.5,49.7,29.96,ENE,70,2.4,5.8,51,0.01,OVC,,0.01,0.0,WeatherDisplay:10.37,2013-04-13 15:07:00,
2013-04-13 11:12:00,68.8,50.5,29.95,ENE,69,1.0,3.5,52,0.01,OVC,,0.01,0.0,WeatherDisplay:10.37,2013-04-13 15:12:00,
2013-04-13 11:17:00,69.0,49.6,29.96,NE,45,5.7,9.2,50,0.01,OVC,,0.01,0.0,WeatherDisplay:10.37,2013-04-13 15:17:00,
2013-04-13 11:23:00,69.1,50.2,29.96,North,355,1.5,3.0,51,0.01,OVC,,0.01,0.0,WeatherDisplay:10.37,2013-04-13 15:23:00,
2013-04-13 11:29:00,69.9,53.0,29.96,NNE,15,2.0,5.0,55,0.01,OVC,,0.01,0.0,WeatherDisplay:10.37,2013-04-13 15:29:00,
2013-04-13 11:34:00,70.1,51.1,29.96,NE,39,3.3,9.2,51,0.00,OVC,,0.01,0.0,WeatherDisplay:10.37,2013-04-13 15:34:00,
2013-04-13 11:39:00,69.0,51.7,29.96,East,80,2.8,6.9,54,0.00,OVC,,0.01,0.0,WeatherDisplay:10.37,2013-04-13 15:39:00,
2013-04-13 11:44:00,68.4,51.6,29.96,ENE,75,4.9,9.2,55,0.00,OVC,,0.01,0.0,WeatherDisplay:10.37,2013-04-13 15:44:00,
2013-04-13 11:49:00,68.0,52.2,29.96,ESE,110,3.3,11.5,57,0.00,OVC,,0.01,0.0,WeatherDisplay:10.37,2013-04-13 15:49:00,
2013-04-13 11:55:00,67.9,51.6,29.96,North,11,5.4,9.2,56,0.00,OVC,,0.01,0.0,WeatherDisplay:10.37,2013-04-13 15:55:00,
2013-04-13 12:00:00,67.9,53.0,29.96,East,85,5.6,11.5,59,0.00,OVC,,0.01,0.0,WeatherDisplay:10.37,2013-04-13 16:00:00,
2013-04-13 12:05:00,67.9,54.4,29.97,ENE,64,1.4,9.0,62,0.00,OVC,,0.01,0.0,WeatherDisplay:10.37,2013-04-13 16:05:00,
2013-04-13 12:10:00,68.3,54.8,29.97,East,80,2.7,6.9,62,0.00,OVC,,0.01,0.0,WeatherDisplay:10.37,2013-04-13 16:10:00,
2013-04-13 12:15:00,67.9,56.1,29.97,East,92,4.8,9.2,66,0.00,OVC,,0.01,0.0,WeatherDisplay:10.37,2013-04-13 16:15:00,
2013-04-13 12:20:00,66.8,56.7,29.97,SE,126,6.3,11.5,70,0.00,OVC,,0.01,0.0,WeatherDisplay:10.37,2013-04-13 16:20:00,
2013-04-13 12:26:00,65.6,57.1,29.97,East,96,2.9,8.1,74,0.00,OVC,,0.01,0.0,WeatherDisplay:10.37,2013-04-13 16:26:00,
2013-04-13 12:31:00,65.5,57.4,29.97,ENE,71,5.6,9.2,75,0.00,OVC,,0.01,0.0,WeatherDisplay:10.37,2013-04-13 16:31:00,
2013-04-13 12:36:00,65.6,57.5,29.97,NE,36,4.0,9.2,75,0.00,OVC,,0.01,0.0,WeatherDisplay:10.37,2013-04-13 16:36:00,
2013-04-13 12:41:00,65.7,57.2,29.97,ESE,103,5.2,15.0,74,0.00,OVC,,0.01,0.0,WeatherDisplay:10.37,2013-04-13 16:41:00,
2013-04-13 12:47:00,65.6,56.7,29.97,ENE,71,8.4,13.0,73,0.00,OVC,,0.01,0.0,WeatherDisplay:10.37,2013-04-13 16:47:00,
2013-04-13 12:52:00,65.6,55.9,29.97,East,92,7.3,11.5,71,0.00,OVC,,0.01,0.0,WeatherDisplay:10.37,2013-04-13 16:52:00,
2013-04-13 12:57:00,65.4,56.1,29.97,ENE,67,7.0,11.5,72,0.00,OVC,,0.01,0.0,WeatherDisplay:10.37,2013-04-13 16:57:00,
2013-04-13 13:03:00,65.8,56.5,29.97,NE,36,2.5,8.1,72,0.00,OVC,,0.01,0.0,WeatherDisplay:10.37,2013-04-13 17:03:00,
2013-04-13 13:08:00,66.2,56.5,29.97,ENE,76,1.3,9.2,71,0.00,OVC,,0.01,0.0,WeatherDisplay:10.37,2013-04-13 17:08:00,
2013-04-13 13:13:00,65.8,55.7,29.97,ESE,117,6.8,11.5,70,0.00,OVC,,0.01,0.0,WeatherDisplay:10.37,2013-04-13 17:13:00,
2013-04-13 13:19:00,65.6,55.9,29.97,ESE,113,6.3,10.4,71,0.00,OVC,,0.01,0.0,WeatherDisplay:10.37,2013-04-13 17:19:00,
2013-04-13 13:24:00,65.4,55.7,29.97,ESE,119,7.5,12.7,71,0.00,OVC,,0.01,0.0,WeatherDisplay:10.37,2013-04-13 17:24:00,
2013-04-13 13:29:00,65.3,56.0,29.97,SE,130,4.3,8.1,72,0.00,OVC,,0.01,0.0,WeatherDisplay:10.37,2013-04-13 17:29:00,
2013-04-13 13:34:00,65.0,55.4,29.97,East,85,6.3,12.7,71,0.00,OVC,,0.01,0.0,WeatherDisplay:10.37,2013-04-13 17:34:00,
2013-04-13 13:39:00,64.8,55.9,29.97,East,82,4.9,9.2,73,0.00,OVC,,0.01,0.0,WeatherDisplay:10.37,2013-04-13 17:39:00,
2013-04-13 13:45:00,64.9,56.0,29.97,ENE,65,4.0,9.2,73,0.00,OVC,,0.01,0.0,WeatherDisplay:10.37,2013-04-13 17:45:00,
2013-04-13 13:50:00,65.2,55.6,29.97,ESE,112,4.8,13.8,71,0.00,OVC,,0.01,0.0,WeatherDisplay:10.37,2013-04-13 17:50:00,
2013-04-13 13:55:00,64.9,56.0,29.96,ESE,112,3.3,5.8,73,0.00,OVC,,0.01,0.0,WeatherDisplay:10.37,2013-04-13 17:55:00,
2013-04-13 14:00:00,65.0,55.8,29.96,ESE,120,5.5,10.4,72,0.00,OVC,,0.01,0.0,WeatherDisplay:10.37,2013-04-13 18:00:00,
2013-04-13 14:05:00,65.1,55.1,29.96,NE,55,4.8,8.1,70,0.00,OVC,,0.01,0.0,WeatherDisplay:10.37,2013-04-13 18:05:00,
2013-04-13 14:10:00,65.1,55.8,29.96,East,90,3.4,9.2,72,0.00,OVC,,0.01,0.0,WeatherDisplay:10.37,2013-04-13 18:10:00,
2013-04-13 14:17:00,65.2,55.6,29.95,ESE,113,2.8,6.9,71,0.00,OVC,,0.01,0.0,WeatherDisplay:10.37,2013-04-13 18:17:00,
2013-04-13 14:22:00,64.9,54.9,29.95,SE,132,4.9,11.5,70,0.00,OVC,,0.01,0.0,WeatherDisplay:10.37,2013-04-13 18:22:00,
2013-04-13 14:27:00,64.7,55.5,29.95,East,96,0.9,7.0,72,0.00,OVC,,0.01,0.0,WeatherDisplay:10.37,2013-04-13 18:27:00,
2013-04-13 14:32:00,65.0,55.4,29.95,East,93,5.3,8.1,71,0.00,OVC,,0.01,0.0,WeatherDisplay:10.37,2013-04-13 18:32:00,
2013-04-13 14:38:00,64.8,54.8,29.95,ESE,108,7.9,10.4,70,0.00,OVC,,0.01,0.0,WeatherDisplay:10.37,2013-04-13 18:38:00,
2013-04-13 14:43:00,64.3,54.7,29.95,ESE,102,5.4,11.5,71,0.00,OVC,,0.01,0.0,WeatherDisplay:10.37,2013-04-13 18:43:00,
2013-04-13 14:48:00,64.5,55.3,29.95,ESE,113,7.0,7.0,72,0.00,OVC,,0.01,0.0,WeatherDisplay:10.37,2013-04-13 18:48:00,
2013-04-13 14:53:00,64.1,54.5,29.95,ESE,115,6.9,8.1,71,0.00,OVC,,0.01,0.0,WeatherDisplay:10.37,2013-04-13 18:53:00,
2013-04-13 14:58:00,63.8,54.6,29.95,ESE,104,5.8,11.5,72,0.00,OVC,,0.01,0.0,WeatherDisplay:10.37,2013-04-13 18:58:00,
2013-04-13 15:03:00,64.0,55.2,29.94,East,79,3.6,8.0,73,0.00,OVC,,0.01,0.0,WeatherDisplay:10.37,2013-04-13 19:03:00,
2013-04-13 15:08:00,63.9,54.7,29.94,ESE,106,5.4,10.0,72,0.00,OVC,,0.01,0.0,WeatherDisplay:10.37,2013-04-13 19:08:00,
2013-04-13 15:13:00,64.1,54.5,29.94,East,88,4.2,6.9,71,0.00,OVC,,0.01,0.0,WeatherDisplay:10.37,2013-04-13 19:13:00,
2013-04-13 15:18:00,64.3,54.7,29.94,SSE,161,4.3,10.4,71,0.00,OVC,,0.01,0.0,WeatherDisplay:10.37,2013-04-13 19:18:00,
2013-04-13 15:23:00,64.3,54.3,29.94,SE,130,4.0,8.1,70,0.00,OVC,,0.01,0.0,WeatherDisplay:10.37,2013-04-13 19:23:00,
2013-04-13 15:28:00,64.5,54.9,29.94,SE,130,4.9,8.1,71,0.00,OVC,,0.01,0.0,WeatherDisplay:10.37,2013-04-13 19:28:00,
2013-04-13 15:33:00,64.5,54.5,29.94,East,82,5.2,7.0,70,0.00,OVC,,0.01,0.0,WeatherDisplay:10.37,2013-04-13 19:33:00,
2013-04-13 15:38:00,64.3,53.5,29.93,ESE,113,7.0,11.5,68,0.00,OVC,,0.01,0.0,WeatherDisplay:10.37,2013-04-13 19:38:00,
2013-04-13 15:43:00,63.8,53.8,29.93,East,91,6.9,10.4,70,0.00,OVC,,0.01,0.0,WeatherDisplay:10.37,2013-04-13 19:43:00,
2013-04-13 15:48:00,63.6,53.6,29.93,SE,138,4.1,11.5,70,0.00,OVC,,0.01,0.0,WeatherDisplay:10.37,2013-04-13 19:48:00,
2013-04-13 15:53:00,63.7,53.7,29.93,SE,131,6.2,8.1,70,0.00,OVC,,0.01,0.0,WeatherDisplay:10.37,2013-04-13 19:53:00,
2013-04-13 15:58:00,63.8,53.8,29.93,ESE,123,4.8,8.1,70,0.00,OVC,,0.01,0.0,WeatherDisplay:10.37,2013-04-13 19:58:00,
2013-04-13 16:03:00,63.9,53.9,29.93,ESE,113,5.5,10.4,70,0.00,OVC,,0.01,0.0,WeatherDisplay:10.37,2013-04-13 20:03:00,
2013-04-13 16:08:00,64.1,54.1,29.93,ESE,120,3.2,11.0,70,0.00,OVC,,0.01,0.0,WeatherDisplay:10.37,2013-04-13 20:08:00,
2013-04-13 16:13:00,64.3,54.3,29.92,East,91,5.5,7.0,70,0.00,OVC,,0.01,0.0,WeatherDisplay:10.37,2013-04-13 20:13:00,
2013-04-13 16:18:00,64.2,54.2,29.92,ESE,104,5.0,8.0,70,0.00,OVC,,0.01,0.0,WeatherDisplay:10.37,2013-04-13 20:18:00,
2013-04-13 16:24:00,64.1,54.1,29.92,East,86,4.6,8.1,70,0.00,OVC,,0.01,0.0,WeatherDisplay:10.37,2013-04-13 20:24:00,
2013-04-13 16:29:00,64.3,54.7,29.92,SE,132,5.2,6.9,71,0.00,OVC,,0.01,0.0,WeatherDisplay:10.37,2013-04-13 20:29:00,
2013-04-13 16:34:00,64.1,54.1,29.92,East,98,2.7,10.4,70,0.00,OVC,,0.01,0.0,WeatherDisplay:10.37,2013-04-13 20:34:00,
2013-04-13 16:39:00,64.2,53.8,29.92,ESE,109,5.4,8.1,69,0.00,OVC,,0.01,0.0,WeatherDisplay:10.37,2013-04-13 20:39:00,
2013-04-13 16:44:00,64.2,53.8,29.92,ENE,58,4.9,9.2,69,0.00,OVC,,0.01,0.0,WeatherDisplay:10.37,2013-04-13 20:44:00,
2013-04-13 16:49:00,63.9,53.9,29.92,ESE,119,4.8,9.2,70,0.00,OVC,,0.01,0.0,WeatherDisplay:10.37,2013-04-13 20:49:00,
2013-04-13 16:54:00,64.0,54.0,29.91,ESE,118,3.9,8.0,70,0.00,OVC,,0.01,0.0,WeatherDisplay:10.37,2013-04-13 20:54:00,
2013-04-13 16:59:00,63.9,53.5,29.92,East,86,3.8,9.2,69,0.00,OVC,,0.01,0.0,WeatherDisplay:10.37,2013-04-13 20:59:00,
2013-04-13 17:04:00,64.0,54.0,29.91,SE,130,4.0,5.0,70,0.00,OVC,,0.01,0.0,WeatherDisplay:10.37,2013-04-13 21:04:00,
2013-04-13 17:09:00,63.6,53.2,29.92,ESE,111,7.7,9.2,69,0.00,OVC,,0.01,0.0,WeatherDisplay:10.37,2013-04-13 21:09:00,
2013-04-13 17:14:00,63.2,53.3,29.92,SSE,153,2.8,10.4,70,0.00,OVC,,0.01,0.0,WeatherDisplay:10.37,2013-04-13 21:14:00,
2013-04-13 17:19:00,63.4,53.8,29.92,East,100,3.6,4.6,71,0.00,OVC,,0.01,0.0,WeatherDisplay:10.37,2013-04-13 21:19:00,
2013-04-13 17:24:00,63.4,53.8,29.92,ESE,113,2.8,7.0,71,0.00,OVC,,0.01,0.0,WeatherDisplay:10.37,2013-04-13 21:24:00,
2013-04-13 17:29:00,63.3,53.3,29.92,East,90,3.5,8.1,70,0.00,OVC,,0.01,0.0,WeatherDisplay:10.37,2013-04-13 21:29:00,
2013-04-13 17:34:00,63.1,53.2,29.92,ESE,118,4.9,6.9,70,0.00,OVC,,0.01,0.0,WeatherDisplay:10.37,2013-04-13 21:34:00,
2013-04-13 17:39:00,62.9,53.0,29.92,SE,134,4.3,6.9,70,0.00,OVC,,0.01,0.0,WeatherDisplay:10.37,2013-04-13 21:39:00,
2013-04-13 17:44:00,62.8,53.3,29.92,ENE,69,5.9,5.9,71,0.00,OVC,,0.01,0.0,WeatherDisplay:10.37,2013-04-13 21:44:00,
2013-04-13 17:49:00,62.9,53.4,29.92,ESE,119,3.3,4.6,71,0.00,OVC,,0.01,0.0,WeatherDisplay:10.37,2013-04-13 21:49:00,
2013-04-13 17:54:00,62.7,53.2,29.92,ESE,113,3.4,4.6,71,0.00,OVC,,0.01,0.0,WeatherDisplay:10.37,2013-04-13 21:54:00,
2013-04-13 17:59:00,62.6,53.8,29.92,East,80,4.3,8.1,73,0.00,OVC,,0.01,0.0,WeatherDisplay:10.37,2013-04-13 21:59:00,
2013-04-13 18:04:00,62.5,53.7,29.92,ESE,119,3.0,4.6,73,0.00,OVC,,0.01,0.0,WeatherDisplay:10.37,2013-04-13 22:04:00,
2013-04-13 18:09:00,62.7,53.9,29.92,SE,125,3.2,6.9,73,0.00,OVC,,0.01,0.0,WeatherDisplay:10.37,2013-04-13 22:09:00,
2013-04-13 18:14:00,62.6,53.8,29.92,ESE,113,1.8,4.0,73,0.00,OVC,,0.01,0.0,WeatherDisplay:10.37,2013-04-13 22:14:00,
2013-04-13 18:19:00,62.2,53.1,29.92,ESE,105,3.2,4.6,72,0.00,OVC,,0.01,0.0,WeatherDisplay:10.37,2013-04-13 22:19:00,
2013-04-13 18:24:00,62.0,53.2,29.92,ENE,76,1.9,3.5,73,0.00,OVC,,0.01,0.0,WeatherDisplay:10.37,2013-04-13 22:24:00,
2013-04-13 18:29:00,61.9,53.1,29.92,SE,146,3.8,6.0,73,0.00,OVC,,0.01,0.0,WeatherDisplay:10.37,2013-04-13 22:29:00,
2013-04-13 18:34:00,61.7,52.6,29.92,ESE,118,3.5,5.8,72,0.00,OVC,,0.01,0.0,WeatherDisplay:10.37,2013-04-13 22:34:00,
2013-04-13 18:39:00,61.4,53.0,29.93,SE,130,1.7,3.5,74,0.00,OVC,,0.01,0.0,WeatherDisplay:10.37,2013-04-13 22:39:00,
2013-04-13 18:44:00,61.2,53.6,29.92,East,98,2.1,3.5,76,0.00,OVC,,0.01,0.0,WeatherDisplay:10.37,2013-04-13 22:44:00,
2013-04-13 18:49:00,61.0,53.7,29.93,ESE,111,2.1,3.5,77,0.00,OVC,,0.01,0.0,WeatherDisplay:10.37,2013-04-13 22:49:00,
2013-04-13 18:54:00,60.8,53.5,29.93,ESE,119,1.7,3.5,77,0.00,OVC,,0.01,0.0,WeatherDisplay:10.37,2013-04-13 22:54:00,
2013-04-13 18:59:00,60.6,53.7,29.94,ENE,73,3.6,6.9,78,0.00,OVC,,0.01,0.0,WeatherDisplay:10.37,2013-04-13 22:59:00,
2013-04-13 19:04:00,60.3,53.8,29.94,East,94,1.2,3.5,79,0.00,OVC,,0.01,0.0,WeatherDisplay:10.37,2013-04-13 23:04:00,
2013-04-13 19:09:00,60.0,53.5,29.95,ENE,77,0.0,0.0,79,0.00,OVC,,0.01,0.0,WeatherDisplay:10.37,2013-04-13 23:09:00,
2013-04-13 19:14:00,59.8,53.6,29.95,ESE,105,0.6,4.0,80,0.00,OVC,,0.01,0.0,WeatherDisplay:10.37,2013-04-13 23:14:00,
2013-04-13 19:19:00,59.5,53.3,29.95,ESE,114,0.4,2.3,80,0.00,OVC,,0.01,0.0,WeatherDisplay:10.37,2013-04-13 23:19:00,
2013-04-13 19:24:00,59.2,53.4,29.95,ESE,109,0.8,3.5,81,0.00,OVC,,0.01,0.0,WeatherDisplay:10.37,2013-04-13 23:24:00,
2013-04-13 19:29:00,58.9,52.7,29.95,ESE,119,2.0,4.6,80,0.00,OVC,,0.01,0.0,WeatherDisplay:10.37,2013-04-13 23:29:00,
2013-04-13 19:34:00,58.6,52.8,29.95,East,84,0.6,3.5,81,0.00,OVC,,0.01,0.0,WeatherDisplay:10.37,2013-04-13 23:34:00,
2013-04-13 19:39:00,58.4,52.9,29.95,East,85,0.3,2.3,82,0.00,OVC,,0.01,0.0,WeatherDisplay:10.37,2013-04-13 23:39:00,
2013-04-13 19:44:00,58.2,53.1,29.95,ESE,114,0.4,1.1,83,0.00,OVC,,0.01,0.0,WeatherDisplay:10.37,2013-04-13 23:44:00,
2013-04-13 19:49:00,58.0,52.9,29.95,East,93,0.6,2.3,83,0.00,OVC,,0.01,0.0,WeatherDisplay:10.37,2013-04-13 23:49:00,
2013-04-13 19:54:00,57.8,53.0,29.95,East,94,0.1,1.1,84,0.00,OVC,,0.01,0.0,WeatherDisplay:10.37,2013-04-13 23:54:00,
2013-04-13 19:59:00,57.6,52.8,29.96,East,94,0.1,1.0,84,0.00,OVC,,0.01,0.0,WeatherDisplay:10.37,2013-04-13 23:59:00,
2013-04-13 20:04:00,57.5,52.7,29.95,East,94,0.0,1.1,84,0.00,CLR,OVC,0.01,0.0,WeatherDisplay:10.37,2013-04-14 00:04:00,
2013-04-13 20:09:00,57.3,52.8,29.95,East,94,0.1,1.0,85,0.00,CLR,OVC,0.01,0.0,WeatherDisplay:10.37,2013-04-14 00:09:00,
2013-04-13 20:15:00,57.1,52.6,29.96,ENE,78,0.8,2.3,85,0.00,CLR,OVC,0.01,0.0,WeatherDisplay:10.37,2013-04-14 00:15:00,
2013-04-13 20:20:00,56.9,52.8,29.95,ENE,78,0.0,0.0,86,0.00,CLR,OVC,0.01,0.0,WeatherDisplay:10.37,2013-04-14 00:20:00,
2013-04-13 20:25:00,56.8,52.7,29.95,ENE,78,0.1,1.1,86,0.00,CLR,OVC,0.01,0.0,WeatherDisplay:10.37,2013-04-14 00:25:00,
2013-04-13 20:30:00,56.6,52.5,29.96,ENE,78,0.0,1.1,86,0.00,CLR,OVC,0.01,0.0,WeatherDisplay:10.37,2013-04-14 00:30:00,
2013-04-13 20:35:00,56.4,52.6,29.96,ENE,78,0.0,0.0,87,0.00,CLR,OVC,0.01,0.0,WeatherDisplay:10.37,2013-04-14 00:35:00,
2013-04-13 20:40:00,56.2,52.4,29.96,ENE,78,0.0,0.0,87,0.00,CLR,OVC,0.01,0.0,WeatherDisplay:10.37,2013-04-14 00:40:00,
2013-04-13 20:45:00,56.0,52.2,29.96,ENE,78,0.0,0.0,87,0.00,CLR,OVC,0.01,0.0,WeatherDisplay:10.37,2013-04-14 00:45:00,
2013-04-13 20:50:00,55.8,52.3,29.97,ENE,78,0.6,1.1,88,0.00,CLR,OVC,0.01,0.0,WeatherDisplay:10.37,2013-04-14 00:50:00,
2013-04-13 20:55:00,55.7,52.2,29.97,ENE,78,0.0,1.1,88,0.00,CLR,OVC,0.01,0.0,WeatherDisplay:10.37,2013-04-14 00:55:00,
2013-04-13 21:00:00,55.5,52.0,29.97,ENE,78,0.0,0.0,88,0.00,CLR,OVC,0.01,0.0,WeatherDisplay:10.37,2013-04-14 01:00:00,
2013-04-13 21:05:00,55.4,51.9,29.97,ENE,78,0.0,0.0,88,0.00,CLR,OVC,0.01,0.0,WeatherDisplay:10.37,2013-04-14 01:05:00,
2013-04-13 21:10:00,55.2,52.0,29.98,ENE,78,0.0,0.0,89,0.00,CLR,OVC,0.01,0.0,WeatherDisplay:10.37,2013-04-14 01:10:00,
2013-04-13 21:15:00,55.0,51.8,29.98,ENE,78,0.0,0.0,89,0.00,CLR,OVC,0.01,0.0,WeatherDisplay:10.37,2013-04-14 01:15:00,
2013-04-13 21:20:00,54.6,51.4,29.98,ENE,78,0.0,0.0,89,0.00,CLR,OVC,0.01,0.0,WeatherDisplay:10.37,2013-04-14 01:20:00,
2013-04-13 21:25:00,54.4,51.5,29.98,ENE,78,0.0,0.0,90,0.00,CLR,OVC,0.01,0.0,WeatherDisplay:10.37,2013-04-14 01:25:00,
2013-04-13 21:30:00,54.2,51.3,29.98,ENE,78,0.0,0.0,90,0.00,CLR,OVC,0.01,0.0,WeatherDisplay:10.37,2013-04-14 01:30:00,
2013-04-13 21:35:00,54.0,51.4,29.99,ENE,78,0.0,0.0,91,0.00,CLR,OVC,0.01,0.0,WeatherDisplay:10.37,2013-04-14 01:35:00,
2013-04-13 21:40:00,53.7,51.1,29.99,ENE,78,0.0,0.0,91,0.00,CLR,OVC,0.01,0.0,WeatherDisplay:10.37,2013-04-14 01:40:00,
2013-04-13 21:45:00,53.6,51.0,29.99,ENE,78,0.0,0.0,91,0.00,CLR,OVC,0.01,0.0,WeatherDisplay:10.37,2013-04-14 01:45:00,
2013-04-13 21:50:00,53.4,50.8,29.99,ENE,78,0.0,0.0,91,0.00,CLR,OVC,0.01,0.0,WeatherDisplay:10.37,2013-04-14 01:50:00,
2013-04-13 21:55:00,53.3,51.0,29.99,ENE,78,0.0,0.0,92,0.00,CLR,OVC,0.01,0.0,WeatherDisplay:10.37,2013-04-14 01:55:00,
2013-04-13 22:00:00,53.2,50.9,29.99,ENE,78,0.0,0.0,92,0.00,CLR,OVC,0.01,0.0,WeatherDisplay:10.37,2013-04-14 02:00:00,
2013-04-13 22:05:00,53.2,51.2,29.99,ENE,78,0.0,0.0,93,0.00,CLR,OVC,0.01,0.0,WeatherDisplay:10.37,2013-04-14 02:05:00,
2013-04-13 22:10:00,53.1,50.8,29.99,ENE,78,0.0,0.0,92,0.00,CLR,OVC,0.01,0.0,WeatherDisplay:10.37,2013-04-14 02:10:00,
2013-04-13 22:15:00,52.9,50.9,29.99,ENE,78,0.0,0.0,93,0.00,CLR,OVC,0.01,0.0,WeatherDisplay:10.37,2013-04-14 02:15:00,
2013-04-13 22:20:00,52.8,50.5,30.00,ENE,78,0.0,0.0,92,0.00,CLR,OVC,0.01,0.0,WeatherDisplay:10.37,2013-04-14 02:20:00,
2013-04-13 22:25:00,52.7,50.7,30.00,ENE,78,0.0,0.0,93,0.00,CLR,OVC,0.01,0.0,WeatherDisplay:10.37,2013-04-14 02:25:00,
2013-04-13 22:30:00,52.6,50.6,30.00,ENE,78,0.0,0.0,93,0.00,CLR,OVC,0.01,0.0,WeatherDisplay:10.37,2013-04-14 02:30:00,
2013-04-13 22:35:00,52.4,50.4,30.00,ENE,78,0.0,0.0,93,0.00,CLR,OVC,0.01,0.0,WeatherDisplay:10.37,2013-04-14 02:35:00,
2013-04-13 22:40:00,52.3,50.3,30.01,ENE,78,0.0,0.0,93,0.00,CLR,OVC,0.01,0.0,WeatherDisplay:10.37,2013-04-14 02:40:00,
2013-04-13 22:45:00,52.2,50.5,30.01,ENE,78,0.0,0.0,94,0.00,CLR,OVC,0.01,0.0,WeatherDisplay:10.37,2013-04-14 02:45:00,
2013-04-13 22:50:00,52.1,50.1,30.01,ENE,78,0.0,0.0,93,0.00,CLR,OVC,0.01,0.0,WeatherDisplay:10.37,2013-04-14 02:50:00,
2013-04-13 22:55:00,51.9,49.9,30.01,ENE,78,0.0,0.0,93,0.00,CLR,OVC,0.01,0.0,WeatherDisplay:10.37,2013-04-14 02:55:00,
2013-04-13 23:00:00,51.8,50.1,30.01,ENE,78,0.0,0.0,94,0.00,CLR,OVC,0.01,0.0,WeatherDisplay:10.37,2013-04-14 03:00:00,
2013-04-13 23:05:00,51.7,50.0,30.01,ENE,78,0.0,0.0,94,0.00,CLR,OVC,0.01,0.0,WeatherDisplay:10.37,2013-04-14 03:05:00,
2013-04-13 23:10:00,51.6,49.9,30.02,ENE,78,0.0,0.0,94,0.00,CLR,OVC,0.01,0.0,WeatherDisplay:10.37,2013-04-14 03:10:00,
2013-04-13 23:15:00,51.5,49.8,30.02,ENE,78,0.0,0.0,94,0.00,CLR,OVC,0.01,0.0,WeatherDisplay:10.37,2013-04-14 03:15:00,
2013-04-13 23:20:00,51.3,49.6,30.02,ENE,78,0.0,0.0,94,0.00,CLR,OVC,0.01,0.0,WeatherDisplay:10.37,2013-04-14 03:20:00,
2013-04-13 23:25:00,51.2,49.5,30.02,ENE,78,0.0,0.0,94,0.00,CLR,OVC,0.01,0.0,WeatherDisplay:10.37,2013-04-14 03:25:00,
2013-04-13 23:30:00,51.1,49.4,30.02,ENE,78,0.0,0.0,94,0.00,CLR,OVC,0.01,0.0,WeatherDisplay:10.37,2013-04-14 03:30:00,
2013-04-13 23:35:00,51.0,49.3,30.02,ENE,78,0.0,0.0,94,0.00,CLR,OVC,0.01,0.0,WeatherDisplay:10.37,2013-04-14 03:35:00,
2013-04-13 23:40:00,50.8,49.1,30.02,ENE,78,0.0,0.0,94,0.00,CLR,OVC,0.01,0.0,WeatherDisplay:10.37,2013-04-14 03:40:00,
2013-04-13 23:45:00,50.7,49.3,30.02,ENE,78,0.0,0.0,95,0.00,CLR,OVC,0.01,0.0,WeatherDisplay:10.37,2013-04-14 03:45:00,
2013-04-13 23:50:00,50.5,49.1,30.02,ENE,78,0.0,0.0,95,0.00,CLR,OVC,0.01,0.0,WeatherDisplay:10.37,2013-04-14 03:50:00,
2013-04-13 23:55:00,50.4,48.7,30.02,ENE,78,0.0,0.0,94,0.00,CLR,OVC,0.01,0.0,WeatherDisplay:10.37,2013-04-14 03:55:00,